Regional Weather Roundup
Issued by NWS

Home | Current Version | Previous Version | Graphics & Text | Print | Product List | Glossary On
Versions: 1 2 3 4 5 6 7 8 9 10 11 12 13 14 15 16 17 18 19 20 21 22 23 24 25 26 27 28 29 30 31 32 33 34 35 36 37 38 39 40 41 42 43 44 45 46 47 48 49 50
300
ASUS45 KTFX 301310
RWRMT
MONTANA REGIONAL WEATHER ROUNDUP
NATIONAL WEATHER SERVICE GREAT FALLS MT
700 AM MDT SUN APR 30 2017

NOTE: "FAIR" INDICATES FEW OR NO CLOUDS BELOW 12000 FEET WITH NO
SIGNIFICANT WEATHER AND/OR OBSTRUCTIONS TO VISIBILITY.

MTZ001>007-043-301400-
WEST OF THE DIVIDE

CITY           SKY/WX    TMP DP  RH WIND       PRES   REMARKS
KALISPELL      CLOUDY    42  39  89 S9        29.99S
MISSOULA       CLOUDY    47  36  65 E3        30.03S
BUTTE          CLOUDY    40  25  55 CALM      30.04F
MULLAN PASS    SNOW      31  31 100 VRB6      29.98S VSB 1/4 WCI  25
ANACONDA         N/A     43  25  49 S7        30.02S
DEER LODGE       N/A     43  30  61 CALM      30.03F
EUREKA           N/A     45  34  65 SE8       29.96S
HAMILTON         N/A     48  30  49 S3        30.04S
LIBBY            N/A     43  37  81 SE6       29.97F
PLAINS           N/A     47  35  63 SW6       30.02S
$$

MTZ008-052>055-301400-
SOUTHWEST MONTANA

CITY           SKY/WX    TMP DP  RH WIND       PRES   REMARKS
BOZEMAN        CLOUDY    37  32  82 SE10      30.05F WCI  30
DILLON         CLOUDY    40  24  53 SW17      30.04F
W YELLOWSTONE  CLOUDY    32  21  64 CALM      30.12R
ENNIS          CLOUDY    43  25  49 SE10G17   30.11F
THREE FORKS      N/A     38 -28   5 CALM      30.02S
TWIN BRIDGES     N/A     44  21  40 SE12      30.03S
$$

MTZ009-010-012-014-046-048-049-054-301400-
EAST SLOPES AND CENTRAL MONTANA

CITY           SKY/WX    TMP DP  RH WIND       PRES   REMARKS
CUT BANK       CLOUDY    42  30  62 SW24G30   29.87F
GREAT FALLS    CLOUDY    47  29  49 SW16      29.93S
MALMSTROM AFB  CLOUDY    47  30  51 SW22      29.93S
HELENA         CLOUDY    45  30  55 SE7       29.99F
AUGUSTA        MOCLDY    43  30  60 W10       29.92S
BOWMANS CRNR   MOCLDY    42  29  58 SW13      29.93R
CHOTEAU          N/A     45  30  57 CALM      29.94R
FAIRFIELD      MOCLDY    46  30  53 SW14      29.91S
POWER          CLOUDY    44  32  64 SW9       29.91S
RAYNESFORD     CLOUDY    46  32  58 SW23G38   29.93S
ULM            MOCLDY    47  31  53 SW15      29.94R
$$

MTZ011-013-016-021-045-047-050-051-301400-
NORTH CENTRAL MONTANA

CITY           SKY/WX    TMP DP  RH WIND       PRES   REMARKS
HAVRE          CLOUDY    39  36  89 W6        29.90R
LEWISTOWN      CLOUDY    43  30  60 W12       29.95R
N BAR RANCH      N/A     41  27  56 NW5       29.98S
CHINOOK          N/A     39  36  87 CALM      29.90R
DENTON         CLOUDY    42  32  67 SW15      29.90S
FORT BENTON      N/A    N/A N/A N/A MISG      29.92F
GEYSER         MOCLDY    44  31  60 W16G22    29.92S
GRASS RANGE      N/A     42  31  65 W15       29.92R
JUDITH GAP     CLOUDY    41  30  65 SW16      29.96S
STANFORD       CLOUDY    44  31  61 W8        29.93F
WINIFRED       MOCLDY    44  30  57 SW10      29.92S
$$

MTZ017>020-022>027-061-062-301400-
NORTHEAST MONTANA

CITY           SKY/WX    TMP DP  RH WIND       PRES   REMARKS
GLASGOW        PTSUNNY   42  31  64 SE13      29.93S
JORDAN           N/A     39  23  52 CALM      29.96S
SIDNEY         SUNNY     37  30  75 S7        30.04S WCI  32
WOLF POINT     SUNNY     34  28  79 N3        29.99S
MALTA          CLEAR     41  36  81 CALM      29.90F
PLENTYWOOD       N/A     39  30  70 SE8       29.99S
POPLAR           N/A     43  27  52 CALM      30.00F
SCOBEY           N/A     42  25  51 SE7       29.94S
$$

MTZ028>42-056>058-301400-
SOUTHCENTRAL AND SOUTHEAST MONTANA

CITY           SKY/WX    TMP DP  RH WIND       PRES   REMARKS
BILLINGS       MOCLDY    42  28  57 SW18      29.98S
LIVINGSTON     CLOUDY    38  27  64 W8        30.03R
MILES CITY     MOSUNNY   37  23  56 S12       30.01F WCI  29
BIG TIMBER     MOCLDY    43  28  56 SW17      30.01S
EKALAKA          N/A     37  17  44 SE5       30.02
LAUREL           N/A     43  27  53 SW14      29.97F
ROUNDUP          N/A     40  27  60 S9        29.89S
$$

REGIONAL REPORTS...DAKOTAS

CITY           SKY/WX    TMP DP  RH WIND       PRES   REMARKS
WILLISTON      SUNNY     42  28  57 S6        30.03S
MINOT          SUNNY     46  23  40 S7        30.04F
DICKINSON      SUNNY     38  22  52 SW5       30.04F
BEACH            N/A     32  27  80 S5        30.08S
TIOGA            N/A     41  27  56 S6        30.05S
WATFORD CITY     N/A     36  25  64 CALM      30.04S
BISMARCK       SUNNY     35  28  75 E6        30.10F WCI  30
GRAND FORKS    PTSUNNY   44  33  65 SE7       30.14F
FARGO          SUNNY     43  26  51 E9        30.12F
BUFFALO SD       N/A     32  22  66 W5        30.00S
RAPID CITY     SUNNY     38  23  55 N8        30.06S
$$

REGIONAL REPORTS...WYOMING/IDAHO/WASHINGTON

CITY           SKY/WX    TMP DP  RH WIND       PRES   REMARKS
GILLETTE       SUNNY     29  21  72 VRB6      30.04F WCI  23
SHERIDAN       CLEAR     29  23  78 CALM      30.02F
BUFFALO WY     CLEAR     34  18  52 W8        30.03F WCI  27
CODY           CLOUDY    29  28  96 CALM      30.06F
YELLOWSTONE LA   N/A     22  20  92 CALM      30.14F
IDAHO FALLS    CLOUDY    37  28  70 S7        30.13S WCI  32
SALMON         CLOUDY    41  32  70 W3        30.06
BOISE          CLOUDY    45  33  63 N5        30.12R
SPOKANE        CLOUDY    46  39  76 SW18      29.99S
$$

REGIONAL REPORTS...ALBERTA

CITY           SKY/WX    TMP DP  RH WIND       PRES   REMARKS
EDMONTON       CLOUDY    39  34  81 SE3       29.77S
CALGARY        MOCLDY    45  27  49 W7        29.76S
LETHBRIDGE     MOCLDY    45  34  65 SW17G23   29.82F
MEDICINE HAT   CLOUDY    46  36  66 S9        29.81F
WATERTON GATE    N/A     37  34  87 SW13G20     N/A  WCI  29
CARDSTON         N/A     41  30  65 W14G21      N/A
MILK RIVER       N/A     43  32  65 SW7         N/A
$$

REGIONAL REPORTS...SASKATCHEWAN

CITY           SKY/WX    TMP DP  RH WIND       PRES   REMARKS
SWIFT CURRENT  MOSUNNY   41  36  81 S13G25    29.84F
REGINA         PTSUNNY   39  36  87 E9        29.93F
SASKATOON      PTSUNNY   41  37  87 E8        29.90F
VAL MARIE        N/A     39  36  87 SE3         N/A
ROCKGLEN         N/A     37  32  81 S10         N/A  WCI  30
ASSINIBOIA       N/A     37  36  93 E6          N/A
$$




USA.gov is the U.S. government's official web portal to all federal, state and local government web resources and services.